WAT8019 LPPT-LPMA

Flight info

Callsign WAT8019
Flight time 1h 24m
Altitude 33000
Route ULVOT DCT GALPA DCT RAKUN
Aircraft A306/H-SDE3FGHIRWY/LB1

Departure

Time 2026-05-05 13:49
Airport Lisbon Humberto Delgado Airport (LPPT)

Arrival

Time 2026-05-05 15:14
Airport Cristiano Ronaldo International Airport (LPMA)
Time Latitude Longitude Altitude Speed Heading
2026-05-05 13:13 38.77140 -9.13602 357 ft 0 kts 202°
2026-05-05 13:21 38.77141 -9.13602 357 ft 0 kts 202°
2026-05-05 13:36 38.77141 -9.13601 357 ft 0 kts 202°
2026-05-05 13:41 38.77156 -9.13594 364 ft 4 kts 204°
2026-05-05 13:41 38.77180 -9.13578 365 ft 4 kts 210°
2026-05-05 13:41 38.77203 -9.13559 364 ft 4 kts 222°
2026-05-05 13:41 38.77219 -9.13534 364 ft 4 kts 250°
2026-05-05 13:42 38.77222 -9.13525 364 ft 0 kts 259°
2026-05-05 13:43 38.77222 -9.13524 364 ft 0 kts 259°
2026-05-05 13:44 38.77222 -9.13525 364 ft 1 kts 259°
2026-05-05 13:44 38.77216 -9.13563 362 ft 7 kts 259°
2026-05-05 13:44 38.77203 -9.13651 365 ft 13 kts 258°
2026-05-05 13:45 38.77182 -9.13783 357 ft 16 kts 259°
2026-05-05 13:45 38.77134 -9.13895 359 ft 14 kts 211°
2026-05-05 13:45 38.77051 -9.13941 365 ft 12 kts 204°
2026-05-05 13:45 38.76976 -9.13982 360 ft 11 kts 204°
2026-05-05 13:46 38.76910 -9.14018 364 ft 10 kts 202°
2026-05-05 13:46 38.76847 -9.14051 361 ft 10 kts 202°
2026-05-05 13:46 38.76779 -9.14088 361 ft 11 kts 204°
2026-05-05 13:46 38.76713 -9.14123 363 ft 9 kts 202°
2026-05-05 13:47 38.76657 -9.14152 362 ft 8 kts 202°
2026-05-05 13:47 38.76608 -9.14179 359 ft 7 kts 209°
2026-05-05 13:47 38.76594 -9.14221 360 ft 4 kts 273°
2026-05-05 13:47 38.76604 -9.14264 361 ft 8 kts 289°
2026-05-05 13:48 38.76628 -9.14347 357 ft 6 kts 291°
2026-05-05 13:48 38.76652 -9.14371 363 ft 5 kts 351°
2026-05-05 13:48 38.76713 -9.14350 361 ft 14 kts 22°
2026-05-05 13:48 38.76867 -9.14268 362 ft 47 kts 21°
2026-05-05 13:49 38.77377 -9.13993 366 ft 110 kts 23°
2026-05-05 13:49 38.78258 -9.13523 366 ft 163 kts 21°
2026-05-05 13:49 38.79404 -9.12867 718 ft 189 kts 21°
2026-05-05 13:49 38.80541 -9.12022 1786 ft 185 kts 28°
2026-05-05 13:50 38.81604 -9.11118 2747 ft 187 kts 27°
2026-05-05 13:50 38.82808 -9.10265 3231 ft 207 kts 14°
2026-05-05 13:50 38.84261 -9.10327 3748 ft 217 kts 338°
2026-05-05 13:50 38.85423 -9.11597 4366 ft 232 kts 304°
2026-05-05 13:51 38.85871 -9.13681 4609 ft 260 kts 271°
2026-05-05 13:51 38.85260 -9.15926 5228 ft 274 kts 236°
2026-05-05 13:51 38.83944 -9.17673 6346 ft 273 kts 224°
2026-05-05 13:51 38.82456 -9.19258 7030 ft 285 kts 221°
2026-05-05 13:52 38.80883 -9.20872 7759 ft 291 kts 223°
2026-05-05 13:52 38.79374 -9.22576 8743 ft 288 kts 226°
2026-05-05 13:52 38.77927 -9.24373 9626 ft 290 kts 229°
2026-05-05 13:52 38.76515 -9.26244 10379 ft 296 kts 230°
2026-05-05 13:53 38.75072 -9.28239 10732 ft 314 kts 231°
2026-05-05 13:53 38.73561 -9.30372 11032 ft 332 kts 231°
2026-05-05 13:53 38.71967 -9.32629 11335 ft 349 kts 231°
2026-05-05 13:53 38.70320 -9.34947 11625 ft 365 kts 231°
2026-05-05 13:54 38.69145 -9.36589 11808 ft 375 kts 230°
2026-05-05 13:54 38.66766 -9.39888 12461 ft 385 kts 230°
2026-05-05 13:54 38.64934 -9.42411 13073 ft 389 kts 230°
2026-05-05 13:54 38.63084 -9.44955 13716 ft 392 kts 230°
2026-05-05 13:55 38.61221 -9.47517 14309 ft 395 kts 230°
2026-05-05 13:55 38.59982 -9.49220 14686 ft 396 kts 230°
2026-05-05 13:55 38.57456 -9.52694 15487 ft 400 kts 230°
2026-05-05 13:55 38.56197 -9.54425 15887 ft 401 kts 230°
2026-05-05 13:56 38.54292 -9.57044 16491 ft 404 kts 230°
2026-05-05 13:56 38.52375 -9.59677 17068 ft 406 kts 230°
2026-05-05 13:56 38.50443 -9.62330 17644 ft 409 kts 230°
2026-05-05 13:56 38.48497 -9.64999 18196 ft 412 kts 230°
2026-05-05 13:57 38.46535 -9.67688 18698 ft 414 kts 230°
2026-05-05 13:57 38.44566 -9.70385 19160 ft 416 kts 229°
2026-05-05 13:57 38.42611 -9.73060 19607 ft 419 kts 229°
2026-05-05 13:57 38.40593 -9.75818 20053 ft 421 kts 229°
2026-05-05 13:58 38.38588 -9.78556 20487 ft 423 kts 229°
2026-05-05 13:58 38.36570 -9.81309 20941 ft 425 kts 229°
2026-05-05 13:58 38.34572 -9.84033 21384 ft 427 kts 229°
2026-05-05 13:58 38.32536 -9.86806 21815 ft 429 kts 229°
2026-05-05 13:59 38.28427 -9.92395 22661 ft 434 kts 229°
2026-05-05 13:59 38.26360 -9.95203 23076 ft 435 kts 229°
2026-05-05 14:00 38.22197 -10.00851 23845 ft 439 kts 229°
2026-05-05 14:00 38.20107 -10.03683 24188 ft 440 kts 229°
2026-05-05 14:00 38.18007 -10.06525 24544 ft 441 kts 229°
2026-05-05 14:00 38.15903 -10.09370 24896 ft 442 kts 229°
2026-05-05 14:01 38.13797 -10.12215 25239 ft 442 kts 229°
2026-05-05 14:01 38.11688 -10.15062 25569 ft 443 kts 230°
2026-05-05 14:01 38.09597 -10.17883 25876 ft 444 kts 230°
2026-05-05 14:01 38.07480 -10.20736 26191 ft 445 kts 230°
2026-05-05 14:02 38.05353 -10.23600 26497 ft 445 kts 230°
2026-05-05 14:02 38.03225 -10.26462 26796 ft 446 kts 230°
2026-05-05 14:02 38.01090 -10.29331 27096 ft 447 kts 230°
2026-05-05 14:02 37.98961 -10.32188 27476 ft 445 kts 230°
2026-05-05 14:03 37.96839 -10.35033 27932 ft 442 kts 230°
2026-05-05 14:03 37.94735 -10.37851 28403 ft 439 kts 230°
2026-05-05 14:03 37.92646 -10.40646 28866 ft 435 kts 230°
2026-05-05 14:03 37.90572 -10.43420 29309 ft 433 kts 230°
2026-05-05 14:04 37.88504 -10.46184 29734 ft 431 kts 230°
2026-05-05 14:04 37.86469 -10.48902 30150 ft 429 kts 230°
2026-05-05 14:04 37.84427 -10.51627 30520 ft 426 kts 230°
2026-05-05 14:04 37.82388 -10.54346 30803 ft 426 kts 230°
2026-05-05 14:05 37.80344 -10.57070 31066 ft 426 kts 230°
2026-05-05 14:05 37.78303 -10.59788 31342 ft 426 kts 230°
2026-05-05 14:05 37.76263 -10.62500 31619 ft 425 kts 230°
2026-05-05 14:05 37.74228 -10.65204 31915 ft 425 kts 230°
2026-05-05 14:06 37.72193 -10.67906 32203 ft 424 kts 230°
2026-05-05 14:06 37.70163 -10.70598 32492 ft 423 kts 230°
2026-05-05 14:06 37.68135 -10.73286 32778 ft 422 kts 230°
2026-05-05 14:06 37.66105 -10.75974 33056 ft 421 kts 230°
2026-05-05 14:07 37.62064 -10.81317 33149 ft 418 kts 230°
2026-05-05 14:07 37.58052 -10.86613 33151 ft 417 kts 230°
2026-05-05 14:08 37.54062 -10.91875 33155 ft 418 kts 230°
2026-05-05 14:08 37.50040 -10.97169 33151 ft 419 kts 230°
2026-05-05 14:09 37.46001 -11.02476 33156 ft 420 kts 230°
2026-05-05 14:09 37.41954 -11.07783 33155 ft 420 kts 229°
2026-05-05 14:10 37.37903 -11.13088 33158 ft 421 kts 229°
2026-05-05 14:10 37.33837 -11.18402 33162 ft 421 kts 229°
2026-05-05 14:11 37.29790 -11.23683 33161 ft 422 kts 229°
2026-05-05 14:11 37.25712 -11.28997 33163 ft 423 kts 229°
2026-05-05 14:12 37.21627 -11.34310 33165 ft 423 kts 229°
2026-05-05 14:12 37.17543 -11.39613 33164 ft 424 kts 229°
2026-05-05 14:13 37.13426 -11.44949 33166 ft 425 kts 229°
2026-05-05 14:13 37.09311 -11.50275 33164 ft 425 kts 229°
2026-05-05 14:14 37.05191 -11.55598 33164 ft 426 kts 229°
2026-05-05 14:14 37.01056 -11.60932 33175 ft 427 kts 229°
2026-05-05 14:15 36.96939 -11.66233 33172 ft 427 kts 228°
2026-05-05 14:15 36.92790 -11.71566 33168 ft 427 kts 228°
2026-05-05 14:16 36.88637 -11.76896 33160 ft 428 kts 228°
2026-05-05 14:16 36.84477 -11.82226 33171 ft 428 kts 228°
2026-05-05 14:17 36.80320 -11.87544 33176 ft 428 kts 228°
2026-05-05 14:17 36.76183 -11.92826 33171 ft 428 kts 228°
2026-05-05 14:18 36.72023 -11.98131 33170 ft 428 kts 228°
2026-05-05 14:18 36.67859 -12.03431 33175 ft 428 kts 228°
2026-05-05 14:19 36.63691 -12.08727 33173 ft 428 kts 228°
2026-05-05 14:19 36.59530 -12.14006 33177 ft 427 kts 228°
2026-05-05 14:20 36.55642 -12.18931 33174 ft 427 kts 228°
2026-05-05 14:20 36.51477 -12.24199 33173 ft 427 kts 228°
2026-05-05 14:21 36.47308 -12.29463 33172 ft 427 kts 228°
2026-05-05 14:21 36.43162 -12.34689 33173 ft 427 kts 228°
2026-05-05 14:22 36.38992 -12.39937 33176 ft 426 kts 228°
2026-05-05 14:22 36.34819 -12.45181 33175 ft 427 kts 228°
2026-05-05 14:23 36.30643 -12.50419 33176 ft 427 kts 228°
2026-05-05 14:23 36.26468 -12.55648 33175 ft 426 kts 228°
2026-05-05 14:24 36.22288 -12.60876 33174 ft 426 kts 228°
2026-05-05 14:24 36.18134 -12.66061 33175 ft 426 kts 228°
2026-05-05 14:25 36.13951 -12.71276 33173 ft 426 kts 228°
2026-05-05 14:25 36.09768 -12.76480 33171 ft 426 kts 228°
2026-05-05 14:26 36.05586 -12.81675 33169 ft 426 kts 228°
2026-05-05 14:26 36.01402 -12.86866 33174 ft 426 kts 228°
2026-05-05 14:27 35.97212 -12.92055 33179 ft 426 kts 227°
2026-05-05 14:27 35.93025 -12.97232 33167 ft 426 kts 227°
2026-05-05 14:28 35.88835 -13.02404 33170 ft 426 kts 227°
2026-05-05 14:28 35.84646 -13.07568 33179 ft 426 kts 227°
2026-05-05 14:29 35.80458 -13.12721 33170 ft 426 kts 227°
2026-05-05 14:29 35.76261 -13.17878 33166 ft 426 kts 227°
2026-05-05 14:30 35.72096 -13.22986 33174 ft 425 kts 227°
2026-05-05 14:30 35.67905 -13.28121 33176 ft 425 kts 227°
2026-05-05 14:31 35.63706 -13.33255 33175 ft 425 kts 227°
2026-05-05 14:31 35.59516 -13.38370 33176 ft 425 kts 227°
2026-05-05 14:32 35.55321 -13.43485 33169 ft 425 kts 227°
2026-05-05 14:32 35.51123 -13.48594 33175 ft 425 kts 227°
2026-05-05 14:33 35.46926 -13.53695 33174 ft 424 kts 227°
2026-05-05 14:33 35.42728 -13.58789 33177 ft 425 kts 227°
2026-05-05 14:34 35.38523 -13.63884 33174 ft 425 kts 227°
2026-05-05 14:34 35.34313 -13.68975 33174 ft 425 kts 227°
2026-05-05 14:35 35.30127 -13.74032 33176 ft 426 kts 227°
2026-05-05 14:35 35.25905 -13.79123 33175 ft 426 kts 227°
2026-05-05 14:36 35.21678 -13.84213 33173 ft 426 kts 227°
2026-05-05 14:36 35.17452 -13.89292 33172 ft 426 kts 227°
2026-05-05 14:37 35.13227 -13.94365 33171 ft 426 kts 227°
2026-05-05 14:37 35.08992 -13.99439 33171 ft 426 kts 227°
2026-05-05 14:38 35.04781 -14.04478 33173 ft 427 kts 227°
2026-05-05 14:38 35.00533 -14.09554 33168 ft 427 kts 227°
2026-05-05 14:39 34.96281 -14.14627 33171 ft 428 kts 227°
2026-05-05 14:39 34.92019 -14.19703 33170 ft 428 kts 227°
2026-05-05 14:40 34.87751 -14.24780 33170 ft 429 kts 227°
2026-05-05 14:40 34.83473 -14.29860 33172 ft 429 kts 227°
2026-05-05 14:41 34.79196 -14.34931 33173 ft 429 kts 226°
2026-05-05 14:41 34.74920 -14.39994 33171 ft 429 kts 226°
2026-05-05 14:42 34.70661 -14.45028 33168 ft 430 kts 226°
2026-05-05 14:42 34.66367 -14.50095 33172 ft 430 kts 226°
2026-05-05 14:43 34.62078 -14.55150 33167 ft 430 kts 226°
2026-05-05 14:43 34.58478 -14.59384 33165 ft 430 kts 226°
2026-05-05 14:44 34.54195 -14.64417 33162 ft 431 kts 226°
2026-05-05 14:44 34.49888 -14.69471 33161 ft 431 kts 226°
2026-05-05 14:45 34.45575 -14.74523 33166 ft 431 kts 226°
2026-05-05 14:45 34.41256 -14.79576 33170 ft 432 kts 226°
2026-05-05 14:46 34.36949 -14.84607 33159 ft 432 kts 226°
2026-05-05 14:46 34.32618 -14.89658 33168 ft 433 kts 226°
2026-05-05 14:47 34.28277 -14.94713 33167 ft 433 kts 226°
2026-05-05 14:47 34.23931 -14.99767 33167 ft 433 kts 226°
2026-05-05 14:48 34.19584 -15.04814 33157 ft 434 kts 226°
2026-05-05 14:48 34.15233 -15.09858 33157 ft 434 kts 226°
2026-05-05 14:49 34.10871 -15.14908 33156 ft 434 kts 226°
2026-05-05 14:49 34.06506 -15.19954 33166 ft 435 kts 226°
2026-05-05 14:50 34.02140 -15.24992 33160 ft 434 kts 226°
2026-05-05 14:50 33.97799 -15.29994 33147 ft 434 kts 226°
2026-05-05 14:51 33.93419 -15.35034 33169 ft 434 kts 226°
2026-05-05 14:51 33.89047 -15.40057 33153 ft 434 kts 226°
2026-05-05 14:52 33.86867 -15.42558 32984 ft 432 kts 226°
2026-05-05 14:52 33.84693 -15.45052 32130 ft 435 kts 226°
2026-05-05 14:52 33.82489 -15.47579 31200 ft 439 kts 225°
2026-05-05 14:52 33.80273 -15.50117 30379 ft 440 kts 225°
2026-05-05 14:53 33.78066 -15.52642 29778 ft 435 kts 225°
2026-05-05 14:53 33.75887 -15.55131 29179 ft 430 kts 225°
2026-05-05 14:53 33.73730 -15.57594 28593 ft 425 kts 225°
2026-05-05 14:53 33.71600 -15.60026 28009 ft 421 kts 225°
2026-05-05 14:54 33.69487 -15.62436 27435 ft 417 kts 225°
2026-05-05 14:54 33.67395 -15.64822 26860 ft 413 kts 225°
2026-05-05 14:54 33.65318 -15.67188 26294 ft 410 kts 225°
2026-05-05 14:54 33.63255 -15.69537 25739 ft 408 kts 225°
2026-05-05 14:55 33.61202 -15.71873 25192 ft 405 kts 225°
2026-05-05 14:55 33.59163 -15.74192 24652 ft 403 kts 225°
2026-05-05 14:55 33.57132 -15.76500 24099 ft 401 kts 225°
2026-05-05 14:55 33.55119 -15.78807 23514 ft 399 kts 226°
2026-05-05 14:56 33.53140 -15.81123 22953 ft 395 kts 226°
2026-05-05 14:56 33.51186 -15.83418 22419 ft 391 kts 226°
2026-05-05 14:56 33.49277 -15.85658 21868 ft 388 kts 226°
2026-05-05 14:56 33.47354 -15.87913 21326 ft 386 kts 226°
2026-05-05 14:57 33.45439 -15.90155 20796 ft 383 kts 226°
2026-05-05 14:57 33.43539 -15.92380 20242 ft 382 kts 226°
2026-05-05 14:57 33.41643 -15.94598 19681 ft 381 kts 226°
2026-05-05 14:57 33.39750 -15.96811 19132 ft 379 kts 226°
2026-05-05 14:58 33.37865 -15.99014 18595 ft 378 kts 226°
2026-05-05 14:58 33.35978 -16.01215 17951 ft 378 kts 226°
2026-05-05 14:58 33.34097 -16.03410 17367 ft 376 kts 226°
2026-05-05 14:58 33.32231 -16.05586 16820 ft 372 kts 226°
2026-05-05 14:59 33.30381 -16.07741 16262 ft 369 kts 226°
2026-05-05 14:59 33.28547 -16.09877 15709 ft 368 kts 226°
2026-05-05 14:59 33.26709 -16.12014 15163 ft 368 kts 226°
2026-05-05 14:59 33.24872 -16.14148 14606 ft 369 kts 226°
2026-05-05 15:00 33.23050 -16.16269 14051 ft 371 kts 225°
2026-05-05 15:00 33.21810 -16.17710 13822 ft 366 kts 225°
2026-05-05 15:00 33.19388 -16.20523 13018 ft 362 kts 225°
2026-05-05 15:00 33.17588 -16.22609 12320 ft 361 kts 225°
2026-05-05 15:01 33.15793 -16.24691 11705 ft 358 kts 225°
2026-05-05 15:01 33.14016 -16.26750 11169 ft 354 kts 225°
2026-05-05 15:01 33.12260 -16.28784 10633 ft 350 kts 225°
2026-05-05 15:01 33.10536 -16.30778 10429 ft 337 kts 225°
2026-05-05 15:02 33.08895 -16.32676 10332 ft 321 kts 225°
2026-05-05 15:02 33.07329 -16.34485 10237 ft 307 kts 225°
2026-05-05 15:02 33.05828 -16.36219 10105 ft 295 kts 225°
2026-05-05 15:02 33.04376 -16.37898 9810 ft 289 kts 225°
2026-05-05 15:03 33.02924 -16.39576 9369 ft 289 kts 225°
2026-05-05 15:03 33.01482 -16.41240 8905 ft 290 kts 224°
2026-05-05 15:03 33.00042 -16.42901 8550 ft 286 kts 224°
2026-05-05 15:03 32.98610 -16.44559 8149 ft 286 kts 224°
2026-05-05 15:04 32.97187 -16.46195 7780 ft 283 kts 224°
2026-05-05 15:04 32.95795 -16.47820 7390 ft 284 kts 224°
2026-05-05 15:04 32.94377 -16.49448 7039 ft 283 kts 224°
2026-05-05 15:04 32.92982 -16.51081 6689 ft 281 kts 223°
2026-05-05 15:05 32.90201 -16.54076 5520 ft 268 kts 223°
2026-05-05 15:05 32.88836 -16.55493 5146 ft 255 kts 220°
2026-05-05 15:05 32.87525 -16.56880 4663 ft 249 kts 220°
2026-05-05 15:06 32.86230 -16.58222 4194 ft 244 kts 220°
2026-05-05 15:06 32.84928 -16.59507 4018 ft 245 kts 214°
2026-05-05 15:06 32.83530 -16.60693 3997 ft 247 kts 212°
2026-05-05 15:06 32.82138 -16.61885 3982 ft 247 kts 211°
2026-05-05 15:07 32.80741 -16.63055 3662 ft 246 kts 212°
2026-05-05 15:07 32.79332 -16.64221 3146 ft 244 kts 211°
2026-05-05 15:07 32.77940 -16.65362 2987 ft 245 kts 211°
2026-05-05 15:07 32.76539 -16.66502 2969 ft 240 kts 211°
2026-05-05 15:08 32.75184 -16.67616 2738 ft 235 kts 211°
2026-05-05 15:08 32.73835 -16.68731 2445 ft 237 kts 211°
2026-05-05 15:08 32.72485 -16.69845 2161 ft 236 kts 211°
2026-05-05 15:08 32.71138 -16.70949 1886 ft 234 kts 211°
2026-05-05 15:09 32.69801 -16.72057 1597 ft 235 kts 212°
2026-05-05 15:09 32.68537 -16.73296 1317 ft 237 kts 221°
2026-05-05 15:09 32.67296 -16.74529 1049 ft 236 kts 214°
2026-05-05 15:09 32.65937 -16.75635 981 ft 237 kts 212°
2026-05-05 15:10 32.64542 -16.76701 989 ft 238 kts 211°
2026-05-05 15:10 32.63179 -16.77723 990 ft 220 kts 211°
2026-05-05 15:10 32.62001 -16.78731 934 ft 198 kts 221°
2026-05-05 15:10 32.61218 -16.79921 983 ft 170 kts 250°
2026-05-05 15:11 32.61201 -16.81222 850 ft 152 kts 306°
2026-05-05 15:11 32.61946 -16.81873 980 ft 132 kts 353°
2026-05-05 15:11 32.62880 -16.82088 1077 ft 145 kts 357°
2026-05-05 15:11 32.63888 -16.82066 937 ft 145 kts 19°
2026-05-05 15:12 32.64803 -16.81587 841 ft 142 kts 29°
2026-05-05 15:12 32.65691 -16.81089 716 ft 139 kts 28°
2026-05-05 15:12 32.66527 -16.80529 586 ft 137 kts 30°
2026-05-05 15:12 32.67380 -16.79983 530 ft 140 kts 28°
2026-05-05 15:13 32.68166 -16.79333 408 ft 141 kts 44°
2026-05-05 15:13 32.68844 -16.78541 246 ft 135 kts 40°
2026-05-05 15:13 32.69499 -16.77781 183 ft 123 kts 41°
2026-05-05 15:13 32.69991 -16.77208 209 ft 62 kts 44°
2026-05-05 15:14 32.70223 -16.76938 206 ft 41 kts 45°
2026-05-05 15:14 32.70347 -16.76774 205 ft 18 kts 53°
2026-05-05 15:14 32.70390 -16.76783 209 ft 4 kts 260°
2026-05-05 15:14 32.70359 -16.76809 209 ft 8 kts 202°
2026-05-05 15:15 32.70296 -16.76856 197 ft 14 kts 222°
2026-05-05 15:15 32.70212 -16.76952 209 ft 20 kts 224°
2026-05-05 15:15 32.70109 -16.77071 206 ft 19 kts 224°
2026-05-05 15:15 32.70023 -16.77167 202 ft 15 kts 212°
2026-05-05 15:16 32.69938 -16.77177 198 ft 11 kts 180°
2026-05-05 15:16 32.69869 -16.77177 196 ft 11 kts 183°
2026-05-05 15:16 32.69808 -16.77217 195 ft 9 kts 224°
2026-05-05 15:16 32.69758 -16.77278 182 ft 12 kts 225°
2026-05-05 15:17 32.69717 -16.77327 177 ft 0 kts 225°
2026-05-05 15:17 32.69709 -16.77336 177 ft 3 kts 225°
2026-05-05 15:17 32.69693 -16.77356 175 ft 4 kts 226°
2026-05-05 15:17 32.69677 -16.77369 175 ft 2 kts 204°
2026-05-05 15:18 32.69657 -16.77366 175 ft 5 kts 162°
2026-05-05 15:18 32.69631 -16.77341 175 ft 4 kts 139°
2026-05-05 15:18 32.69620 -16.77330 175 ft 1 kts 139°
2026-05-05 15:18 32.69613 -16.77323 175 ft 2 kts 140°
2026-05-05 15:19 32.69609 -16.77320 175 ft 0 kts 146°
2026-05-05 15:19 32.69592 -16.77317 175 ft 3 kts 183°
2026-05-05 15:19 32.69583 -16.77322 175 ft 0 kts 207°
2026-05-05 15:19 32.69582 -16.77323 175 ft 1 kts 213°
2026-05-05 15:20 32.69580 -16.77332 175 ft 1 kts 250°
2026-05-05 15:20 32.69582 -16.77340 175 ft 1 kts 281°
2026-05-05 15:20 32.69585 -16.77351 175 ft 0 kts 287°
2026-05-05 15:21 32.69588 -16.77364 175 ft 1 kts 282°
2026-05-05 15:21 32.69589 -16.77372 175 ft 0 kts 282°
2026-05-05 15:21 32.69591 -16.77380 175 ft 0 kts 282°
2026-05-05 15:25 32.69590 -16.77380 175 ft 0 kts 282°
2026-05-05 15:25 32.69591 -16.77380 175 ft 0 kts 282°
2026-05-05 15:25 32.69590 -16.77380 175 ft 0 kts 282°
2026-05-05 15:33 32.69590 -16.77379 175 ft 0 kts 282°
2026-05-05 15:52 32.69590 -16.77378 175 ft 0 kts 282°
2026-05-05 16:12 32.69590 -16.77377 175 ft 0 kts 282°